Proserpine Hamilton Isla, Australia

9:50 AM AEST on December 08, 2016 (GMT +1000)
Hamilton Island

Weather History for YBHM - February, 2013

Change the Weather History Date:

Thursday, February 28, 2013

  Actual Average Record
Temperature  
Mean Temperature 80 °F -  
Max Temperature 84 °F - - ()
Min Temperature 77 °F - - ()
Cooling Degree Days 16    
Growing Degree Days 30 (Base 50)    
Moisture  
Dew Point 78 °F    
Average Humidity 91    
Maximum Humidity 100    
Minimum Humidity 79    
Precipitation  
Precipitation 0.28 in - - ()
Sea Level Pressure  
Sea Level Pressure 29.71 in    
Wind  
Wind Speed 19 mph ()    
Max Wind Speed 25 mph    
Max Gust Speed 36 mph    
T = Trace of Precipitation, MM = Missing Value Source: Averaged Metar Reports

Daily Weather History Graph

Daily Weather History Graph

Search for Another Location

Airport or City:

Trip Planner

Search our weather history database for the weather conditions in past years. The results will help you decide how hot, cold, wet, or windy it might be!

Date:

Astronomy

Feb. 28, 2013 Rise Set
Actual Time 6:01 AM AEST 6:32 PM AEST
Civil Twilight 5:38 AM AEST 6:54 PM AEST
Nautical Twilight 5:12 AM AEST 7:20 PM AEST
Astronomical Twilight 4:46 AM AEST 7:46 PM AEST
Moon 7:58 PM AEST (2/28) 7:52 AM AEST (2/28)
Length of Visible Light 13h 15m
Length of Day
12h 30m
Waning Gibbous, 94% of the Moon is Illuminated
Feb 28
Waning Gibbous
Mar 5
Last Quarter
Mar 12
New
Mar 20
First Quarter
Mar 27
Full

Hourly Weather History & Observations

Time (AEST) Temp. Heat Index Dew Point Humidity Pressure Visibility Wind Dir Wind Speed Gust Speed Precip Events Conditions
12:00 AM 81 °F - 78 °F 90% 29.72 in - East 20.7 mph - -  
12:00 AM 80.6 °F 88.1 °F 78.8 °F 94% 29.71 in - East 20.7 mph - N/A   Unknown
12:30 AM 80.6 °F 88.1 °F 78.8 °F 94% 29.71 in - East 19.6 mph - N/A   Unknown
1:00 AM 80.6 °F 88.1 °F 78.8 °F 94% 29.71 in - East 19.6 mph - N/A   Unknown
1:30 AM 80.6 °F 87.1 °F 77.0 °F 89% 29.68 in - ENE 18.4 mph - N/A   Unknown
2:00 AM 80.6 °F 88.1 °F 78.8 °F 94% 29.68 in - East 19.6 mph - N/A   Unknown
2:30 AM 80.6 °F 87.1 °F 77.0 °F 89% 29.68 in - East 21.9 mph - N/A   Unknown
3:00 AM 81 °F - 78 °F 88% 29.67 in - East 23.0 mph - -  
3:00 AM 80.6 °F 88.1 °F 78.8 °F 94% 29.68 in - East 23.0 mph - N/A   Unknown
3:30 AM 80.6 °F 87.1 °F 77.0 °F 89% 29.68 in - East 23.0 mph - N/A   Unknown
4:00 AM 80.6 °F 87.1 °F 77.0 °F 89% 29.68 in - East 24.2 mph - N/A   Unknown
4:30 AM 80.6 °F 87.1 °F 77.0 °F 89% 29.68 in - East 21.9 mph - N/A   Unknown
4:51 AM 80.6 °F 87.1 °F 77.0 °F 89% 29.68 in - East 19.6 mph 32.2 mph N/A   Unknown
5:00 AM 78.8 °F - 78.8 °F 100% 29.68 in - East 24.2 mph - N/A   Unknown
5:30 AM 80.6 °F 87.1 °F 77.0 °F 89% 29.68 in - East 21.9 mph - N/A   Unknown
6:00 AM 80 °F - 77 °F 89% 29.70 in - East 21.9 mph - -  
6:00 AM 80.6 °F 87.1 °F 77.0 °F 89% 29.71 in - East 21.9 mph - N/A   Unknown
6:30 AM 80.6 °F 87.1 °F 77.0 °F 89% 29.71 in - East 20.7 mph - N/A   Unknown
7:00 AM 80.6 °F 87.1 °F 77.0 °F 89% 29.71 in - East 20.7 mph - N/A   Unknown
7:38 AM 80.6 °F 88.1 °F 78.8 °F 94% 29.71 in - East 17.3 mph 28.8 mph N/A   Unknown
8:00 AM 80.6 °F 88.1 °F 78.8 °F 94% 29.74 in - East 17.3 mph - N/A   Unknown
8:30 AM 80.6 °F 88.1 °F 78.8 °F 94% 29.74 in - East 17.3 mph - N/A   Unknown
9:00 AM 82 °F - 77 °F 80% 29.74 in - East 18.4 mph - -  
9:00 AM 82.4 °F 90.9 °F 77.0 °F 84% 29.74 in - East 18.4 mph - N/A   Unknown
9:30 AM 82.4 °F 92.4 °F 78.8 °F 89% 29.74 in - East 15.0 mph - N/A   Unknown
10:00 AM 84.2 °F 96.1 °F 78.8 °F 84% 29.74 in - East 18.4 mph - N/A   Unknown
10:30 AM 84.2 °F 96.1 °F 78.8 °F 84% 29.74 in - East 17.3 mph - N/A   Unknown
11:00 AM 84.2 °F 96.1 °F 78.8 °F 84% 29.74 in - East 19.6 mph - N/A   Unknown
11:30 AM 84.2 °F 96.1 °F 78.8 °F 84% 29.74 in - East 17.3 mph - N/A   Unknown
12:00 PM 83 °F - 78 °F 80% 29.72 in - East 20.7 mph - -  
12:00 PM 82.4 °F 90.9 °F 77.0 °F 84% 29.71 in - East 20.7 mph - N/A   Unknown
12:30 PM 82.4 °F 92.4 °F 78.8 °F 89% 29.71 in - East 15.0 mph - N/A   Unknown
1:00 PM 84.2 °F 94.1 °F 77.0 °F 79% 29.71 in - ENE 17.3 mph - N/A   Unknown
1:30 PM 82.4 °F 90.9 °F 77.0 °F 84% 29.71 in - East 13.8 mph - N/A   Unknown
2:00 PM 84.2 °F 96.1 °F 78.8 °F 84% 29.68 in - East 19.6 mph - N/A   Unknown
2:27 PM 78.8 °F - 77.0 °F 94% 29.68 in - East 23.0 mph 34.5 mph N/A   Unknown
2:30 PM 78.8 °F - 78.8 °F 100% 29.68 in - East 24.2 mph 35.7 mph N/A   Unknown
3:00 PM 81 °F - 80 °F 97% 29.68 in - East 23.0 mph - -  
3:00 PM 80.6 °F 89.3 °F 80.6 °F 100% 29.68 in - East 23.0 mph - N/A   Unknown
3:30 PM 80.6 °F 89.3 °F 80.6 °F 100% 29.68 in - East 25.3 mph - N/A   Unknown
4:00 PM 80.6 °F 88.1 °F 78.8 °F 94% 29.68 in - East 23.0 mph - N/A   Unknown
5:00 PM 80.6 °F 88.1 °F 78.8 °F 94% 29.68 in - East 20.7 mph - N/A   Unknown
5:30 PM 80.6 °F 88.1 °F 78.8 °F 94% 29.68 in - ESE 19.6 mph - N/A   Unknown
6:00 PM 80 °F - 78 °F 93% 29.70 in - ESE 17.3 mph - -  
6:00 PM 80.6 °F 88.1 °F 78.8 °F 94% 29.71 in - ESE 17.3 mph - N/A   Unknown
6:30 PM 80.6 °F 88.1 °F 78.8 °F 94% 29.71 in - East 18.4 mph - N/A   Unknown
7:00 PM 80.6 °F 88.1 °F 78.8 °F 94% 29.71 in - East 19.6 mph - N/A   Unknown
7:30 PM 80.6 °F 88.1 °F 78.8 °F 94% 29.71 in - East 19.6 mph - N/A   Unknown
8:00 PM 80.6 °F 88.1 °F 78.8 °F 94% 29.74 in - ESE 19.6 mph - N/A   Unknown
8:24 PM 80.6 °F 87.1 °F 77.0 °F 89% 29.74 in - East 23.0 mph - N/A   Unknown
8:30 PM 80.6 °F 88.1 °F 78.8 °F 94% 29.74 in - East 20.7 mph - N/A   Unknown
9:00 PM 80 °F - 78 °F 90% 29.74 in - East 23.0 mph - -  
9:00 PM 80.6 °F 87.1 °F 77.0 °F 89% 29.74 in - East 23.0 mph - N/A   Unknown
9:30 PM 80.6 °F 88.1 °F 78.8 °F 94% 29.74 in - East 20.7 mph - N/A   Unknown
10:00 PM 78.8 °F - 78.8 °F 100% 29.77 in - East 16.1 mph - N/A   Unknown
10:30 PM 78.8 °F - 78.8 °F 100% 29.74 in - East 20.7 mph - N/A   Unknown
11:00 PM 80.6 °F 87.1 °F 77.0 °F 89% 29.74 in - East 19.6 mph - N/A   Unknown
11:30 PM 78.8 °F - 77.0 °F 94% 29.74 in - East 19.6 mph - N/A   Unknown